RH
100 100 76 76 84 97 100 97 95 77 60 60 46 50 59 98 70 68 63 49 33 42 42 69 80 92 91 95 98 98 97 97 98 86 46 46 48 51 46 34 40 46 48 49
99 92 83 98 98 96 97 94 89 73 68 63 48 56 71 77 82 67 52 44 49 37 48 50 76 86 94 93 99 100 99 92 99 92 65 50 40 43 40 39 43 47 48 49
97 94 93 97 98 97 96 94 86 87 78 58 68 89 77 69 78 84 48 34 53 77 73 63 76 96 97 96 100 97 100 97 97 94 62 62 60 55 55 51 47 48 49 50
97 94 100 100 97 96 96 90 82 84 95 95 88 78 67 80 85 79 56 46 74 83 64 77 97 100 99 95 100 98 98 100 99 98 89 84 78 74 62 63 68 56 57 59
98 96 100 87 95 99 83 94 99 99 100 95 63 80 99 97 97 90 97 76 67 69 90 85 99 100 98 84 96 97 98 99 99 100 87 89 97 98 91 89 96 98 94 99
99 99 97 95 95 100 93 97 92 94 97 98 86 94 98 98 99 100 94 79 73 90 99 99 94 100 87 97 100 100 99 100 99 99 91 96 98 98 98 98 98 98 100 98
92 77 89 92 90 91 82 95 98 96 97 98 98 94 98 99 98 100 100 84 98 100 94 96 98 85 83 93 93 99 94 99 96 94 86 92 98 99 98 100 97 100 99 96
94 81 77 89 94 98 100 99 99 96 97 98 85 97 98 99 100 99 100 100 100 97 99 98 100 99 99 99 99 100 97 86 88 83 91 90 98 98 96 100 98 94 91 96
97 86 76 80 96 99 97 97 95 98 70 85 98 99 99 98 99 100 100 100 100 100 100 100 98 93 91 89 87 86 84 86 90 95 90 91 98 99 98 99 92 95 97 93
93 83 79 86 93 88 91 80 88 88 88 95 98 98 98 98 98 99 100 100 100 100 100 100 99 93 90 90 85 81 76 74 74 72 71 69 73 80 79 83 86 85 86 80
90 97 73 82 70 81 81 79 70 67 49 52 79 98 98 96 96 98 98 97 92 95 98 97 95 90 77 71 69 64 59 58 60 64 67 65 62 62 65 62 62 63 64 65
89 89 74 60 63 76 75 71 67 68 62 55 73 96 96 90 88 82 77 74 73 66 62 59 55 54 48 45 42 40 40 41 43 51 59 60 57 56 58 56 54 57 60 66
72 74 80 66 78 67 75 65 43 65 62 56 73 96 98 75 68 67 60 56 56 54 51 48 46 44 41 39 37 37 37 37 38 45 50 47 49 53 60 64 59 56 57 62
60 70 82 88 80 81 79 62 58 54 68 77 87 81 73 68 62 58 52 51 48 46 44 43 41 40 40 40 39 39 38 37 38 39 38 37 41 55 64 64 64 65 66 70
67 62 64 71 68 65 71 71 65 65 64 73 75 80 66 57 55 52 50 48 45 44 45 43 42 42 41 39 38 37 39 38 38 39 41 43 43 43 42 39 38 43 62 72
56 55 61 52 50 52 43 48 58 67 72 72 65 66 56 48 44 41 43 43 40 36 33 30 28 27 24 22 21 22 24 26 29 33 36 39 41 43 48 49 48 46 42 39
42 43 58 64 40 49 60 41 40 51 66 72 73 56 48 42 34 26 22 18 15 13 10 8 8 8 8 8 7 7 7 7 7 7 8 11 18 26 32 41 49 52 51 50
46 47 47 62 33 65 50 38 37 40 42 45 44 40 42 44 47 38 27 15 10 9 8 7 7 6 6 6 5 5 5 4 4 4 4 5 6 7 12 22 32 45 56 57
37 35 55 56 40 38 27 22 28 31 34 31 26 26 26 26 34 57 57 38 9 8 8 8 8 8 7 7 7 6 5 4 4 3 3 3 3 3 5 13 28 39 44 53
27 28 44 53 52 42 36 20 22 21 35 24 15 13 13 13 14 14 11 9 8 9 10 11 11 14 15 14 14 13 16 19 22 28 28 21 10 6 4 5 19 52 58 58
44 44 55 60 53 44 34 22 22 37 39 18 11 10 10 12 13 14 14 12 10 9 10 10 10 12 11 11 11 10 10 17 22 37 40 44 53 47 28 15 10 9 22 63
40 54 58 54 56 55 21 20 16 18 11 10 9 9 9 10 12 15 15 15 14 12 11 10 10 10 9 7 6 6 5 8 20 34 51 58 58 68 66 55 37 24 20 16
33 27 47 37 42 27 17 14 16 15 12 10 10 8 7 8 10 14 15 15 14 13 12 11 11 10 9 7 6 6 6 5 12 31 46 66 69 69 74 69 69 56 43 24
34 29 29 24 21 18 18 17 17 16 15 12 10 9 10 8 10 15 16 17 16 14 13 12 11 9 8 7 7 6 8 14 26 36 50 70 74 64 78 84 90 87 49 32
29 29 24 18 19 20 16 14 14 15 12 10 10 11 12 10 13 18 19 18 16 15 14 11 10 9 9 8 8 7 9 16 29 44 55 74 89 87 88 95 99 93 53 50
13 12 14 13 12 13 10 10 9 10 9 10 11 14 12 12 18 22 20 19 17 15 12 11 11 10 10 10 10 10 13 21 39 46 50 76 89 91 82 95 76 72 69 70
Wind_Speed
13 19 22 18 18 21 22 26 25 20 20 22 26 31 28 20 25 27 27 25 30 25 23 28 27 30 23 21 21 22 36 31 33 35 38 35 35 36 36 38 39 37 36 33
17 24 22 19 19 20 24 24 25 23 16 14 26 29 19 21 15 20 23 20 22 29 25 24 31 27 28 26 24 17 28 27 35 32 31 31 33 33 33 35 37 35 33 32
19 20 18 17 18 17 17 19 20 23 18 17 16 24 26 19 18 18 19 20 20 24 24 25 30 24 30 23 14 23 32 33 37 37 38 35 33 33 34 34 34 33 33 32
7 6 12 15 17 10 17 13 18 24 17 17 24 8 23 20 19 16 16 18 18 14 22 23 20 21 30 28 24 24 23 43 45 33 37 33 34 31 33 34 32 32 32 30
5 6 6 3 4 5 14 15 17 11 16 15 25 3 4 10 10 12 12 17 12 19 16 17 11 10 11 30 26 19 26 36 43 33 40 38 33 35 34 36 36 30 35 30
9 9 5 5 4 7 14 15 8 21 16 6 12 9 9 4 8 13 16 16 14 18 16 9 4 6 12 18 7 27 26 29 35 43 41 40 40 33 34 35 33 31 31 32
10 8 8 5 7 7 10 14 4 0 3 2 14 11 11 11 9 12 13 10 19 21 6 12 17 15 16 10 16 16 11 19 6 25 45 46 47 40 33 37 34 30 35 32
6 4 8 7 14 8 11 10 5 3 2 3 10 7 11 15 12 15 20 22 24 17 19 17 16 15 13 10 5 2 4 9 6 6 2 5 17 19 49 40 34 44 41 43
7 6 5 6 13 11 12 9 9 5 12 4 7 9 21 22 15 22 30 27 18 22 21 19 16 10 8 7 6 4 2 1 2 6 8 10 13 17 20 17 15 25 31 31
5 6 5 8 11 10 12 15 2 2 3 4 4 11 12 23 25 29 26 25 24 21 17 12 8 7 5 7 6 6 6 8 10 12 12 15 16 18 21 21 20 19 18 20
6 3 4 8 11 16 19 19 9 9 3 1 3 6 17 19 25 26 26 21 15 11 10 10 7 6 5 5 6 8 11 12 15 18 21 22 23 24 25 26 26 27 27 26
5 3 3 5 11 16 19 17 13 5 9 18 12 9 13 16 17 16 19 18 14 12 10 8 6 3 0 2 4 6 8 10 13 17 19 21 21 22 25 27 27 29 29 29
3 4 6 4 3 12 12 20 6 8 4 17 6 6 10 9 14 14 15 13 11 9 7 5 4 2 3 5 6 6 8 8 9 12 15 18 22 24 24 25 25 26 29 29
2 3 4 4 3 8 11 18 14 14 18 26 22 16 6 9 10 8 6 6 5 3 2 2 3 5 8 10 12 14 15 16 17 18 18 18 19 21 25 26 26 26 27 28
5 6 9 9 8 10 12 16 20 23 17 19 19 15 8 5 3 3 2 3 5 6 8 10 12 15 17 18 20 21 24 25 26 27 27 28 28 28 27 27 26 27 29 31
6 3 6 7 6 7 10 10 13 20 17 15 11 12 7 2 2 6 7 8 8 10 11 12 14 16 18 20 22 24 26 26 28 30 32 34 35 35 35 36 35 34 32 32
3 3 4 3 6 3 3 7 6 9 12 11 5 3 5 5 4 4 5 4 6 9 11 13 16 19 22 24 27 29 30 32 34 35 35 35 37 38 39 39 40 41 41 39
2 2 3 5 5 2 3 1 2 5 6 6 5 4 2 2 1 3 3 7 11 13 14 16 18 17 19 20 23 24 24 27 31 33 37 39 42 43 44 44 44 43 43 44
2 1 3 3 5 8 7 4 3 3 2 2 2 1 1 3 5 6 12 15 19 20 21 21 20 21 21 21 20 19 20 22 26 33 41 44 46 49 50 51 50 49 48 46
4 3 1 3 2 2 3 3 5 3 2 4 1 1 3 5 7 12 16 19 24 25 27 27 27 24 25 27 28 28 28 29 28 27 27 31 41 52 55 57 58 55 52 49
3 3 7 6 5 6 7 5 4 2 3 3 5 6 8 11 15 17 19 22 24 27 30 31 30 32 36 37 39 39 39 38 37 34 33 31 31 34 42 50 50 53 59 55
3 3 3 4 5 5 4 4 3 2 3 7 9 10 12 15 17 21 24 27 31 34 35 38 41 42 42 41 41 39 40 42 43 43 41 38 36 35 37 41 46 48 49 55
5 7 4 6 5 7 8 7 7 9 9 11 12 14 17 21 24 26 30 33 35 37 39 42 44 44 43 42 41 39 40 43 45 46 45 43 40 35 33 35 40 51 47 51
12 12 15 12 8 8 9 11 11 12 12 14 16 19 21 23 26 29 32 34 35 37 40 43 43 42 40 39 37 38 42 45 45 45 44 44 39 38 35 33 33 39 43 45
19 19 14 16 14 13 13 12 12 13 14 17 19 21 22 23 27 30 32 35 37 39 41 42 41 40 39 39 36 38 42 45 44 43 41 41 39 38 33 33 28 34 39 39
17 16 22 21 16 13 11 13 14 15 17 19 21 22 21 25 29 31 33 36 38 40 41 40 38 38 37 37 37 41 44 43 43 41 41 39 37 34 26 28 31 32 36 33
Wind_Direction
267 252 258 291 276 281 277 283 280 283 279 251 243 240 230 226 206 214 230 241 241 240 249 228 242 234 229 210 217 229 202 206 204 185 201 202 197 197 203 202 203 207 210 213
244 255 287 283 263 269 266 268 265 291 276 239 231 232 240 237 224 230 233 242 244 240 240 237 236 249 233 231 238 230 207 208 196 189 191 199 200 202 205 206 209 211 216 220
257 263 281 286 270 273 265 268 272 269 280 223 210 222 213 223 234 237 234 234 240 251 243 231 235 245 225 238 207 238 200 200 195 191 195 196 200 204 208 210 215 218 222 225
280 308 284 266 271 261 267 272 260 257 254 242 200 208 208 212 228 228 229 229 223 253 244 215 235 238 226 219 258 212 228 208 207 183 192 189 194 200 207 207 209 217 222 225
338 348 323 302 313 273 268 273 296 261 231 227 207 231 205 209 213 208 198 193 213 242 205 224 243 281 258 260 240 223 221 207 206 189 189 196 197 201 203 210 215 215 217 223
4 354 350 315 329 269 271 299 256 221 243 199 199 245 38 72 160 165 196 203 200 164 161 163 235 178 53 50 189 197 208 204 218 202 190 204 206 213 214 214 224 220 234 238
353 9 0 359 321 296 274 297 236 161 34 39 64 77 37 15 169 159 172 171 147 150 115 124 102 83 62 61 53 99 88 203 151 207 204 221 216 232 213 228 226 232 233 239
357 323 308 315 304 277 307 306 12 30 57 58 51 14 15 53 123 166 168 154 138 135 133 124 121 109 98 86 83 55 89 95 127 126 167 201 230 269 226 233 247 244 243 244
346 328 360 325 343 5 350 10 357 337 121 95 31 38 32 45 117 136 127 122 145 144 131 130 136 127 124 115 108 88 55 102 203 194 235 251 259 253 252 247 271 234 247 259
17 317 26 9 1 15 353 2 343 318 10 42 54 44 35 42 87 97 112 124 130 128 133 147 158 139 169 206 226 231 231 232 242 249 243 249 252 248 253 257 259 260 261 259
21 347 352 14 10 31 32 8 355 310 313 83 93 51 48 52 67 88 101 106 114 124 152 170 188 213 236 235 244 256 259 255 247 245 245 246 248 251 255 257 260 263 263 264
52 11 336 29 33 45 34 5 360 14 14 76 84 68 59 83 87 83 93 109 117 118 115 116 125 132 39 331 302 282 274 268 263 259 257 258 260 259 257 257 254 256 257 258
34 17 338 333 27 35 19 18 46 45 32 27 91 106 92 85 88 85 90 93 99 102 99 93 72 33 325 316 308 311 308 306 301 286 277 270 266 265 264 266 266 262 259 256
65 51 78 78 47 43 30 45 63 75 75 86 102 107 104 106 108 101 88 88 83 69 39 318 289 285 281 278 284 286 285 280 280 279 279 275 268 265 267 270 271 269 264 260
81 73 71 54 52 53 55 52 71 77 95 101 122 120 123 99 69 48 10 346 328 317 302 303 302 294 286 280 277 276 276 276 274 273 271 269 271 271 269 267 266 266 266 265
70 66 44 32 38 40 45 58 78 102 92 122 125 115 126 128 318 324 327 330 329 316 309 303 294 290 292 290 287 282 280 278 276 273 272 272 272 270 269 268 266 264 262 264
65 15 15 314 359 40 261 46 84 101 136 137 154 149 165 171 196 215 220 249 276 281 286 288 292 295 294 293 292 290 288 284 282 281 278 276 272 269 265 263 263 264 262 259
98 12 350 302 349 7 325 81 119 125 137 152 162 167 188 164 158 282 303 321 309 313 315 310 303 294 286 283 284 286 284 277 273 270 269 268 268 267 266 265 262 257 256 257
285 327 334 3 324 303 305 268 229 195 161 219 180 161 83 9 333 317 314 315 319 324 323 323 323 324 318 306 296 289 285 276 267 263 260 259 257 256 257 256 256 256 256 251
244 238 227 304 289 255 278 252 221 234 169 162 194 300 314 328 334 330 329 329 326 326 330 332 336 331 324 325 322 319 318 314 306 295 284 263 261 262 261 261 258 258 256 254
305 261 233 252 259 259 276 218 205 155 151 236 319 331 336 339 344 341 340 334 330 333 337 335 332 332 336 333 330 330 325 319 315 309 302 287 271 265 259 264 265 263 261 260
266 255 262 223 238 278 324 246 266 312 317 313 323 325 329 336 338 337 336 335 334 330 326 324 323 324 326 326 326 325 319 314 315 315 311 303 294 285 274 256 253 259 257 253
269 236 239 242 258 286 296 284 291 296 298 309 317 324 327 329 330 332 331 332 328 323 319 319 319 319 322 325 325 323 315 310 311 315 313 309 307 300 289 274 257 251 253 251
281 267 255 272 266 275 282 283 282 285 299 307 314 321 322 320 324 327 326 326 322 318 318 317 319 321 325 324 321 313 311 313 314 315 315 311 309 308 301 290 267 253 249 249
271 276 271 276 277 277 279 280 283 286 298 305 309 315 312 315 319 321 322 320 318 317 315 317 319 322 323 320 317 309 309 312 315 317 316 309 303 301 295 286 272 261 252 248
284 272 259 272 273 272 283 287 292 296 300 303 305 306 306 310 318 319 318 317 316 315 317 320 322 322 318 316 312 309 312 316 318 318 316 311 306 299 284 283 265 272 268 252